TIANMU-1 18

Last updated on Fri Sep 11 2026 00:02:39 GMT+0000 (Coordinated Universal Time)

1 58703U 24004D 26253.62711377 .00003851 00000+0 14631-3 0 9999 2 58703 97.4661 79.8210 0006027 48.8006 311.3751 15.27410342148818
UTC large
Height (km)
Speed (km/s)
/
Latitude / Longitude
Inclination (degrees)
Orbital Period (minutes)
Azimuth
Elevation
Range (km)
Doppler Factor

Next 0 passes for location: London (51.5072 / 0.1276)

No passes found over London.
TIANMU-1 18